Time,TemperatureF,DewpointF,PressureIn,WindDirection,WindDirectionDegrees,WindSpeedMPH,WindSpeedGustMPH,Humidity,HourlyPrecipIn,Conditions,Clouds,dailyrainin,SoftwareType,DateUTC
2013-01-04 00:00:00,19.7,11.5,30.50,North,5,0.0,0.0,70,0.00,,---,0.00,VWS V14.01,2013-01-04 07:00:00,
2013-01-04 00:02:00,19.7,11.5,30.51,North,5,0.0,0.0,70,0.00,,---,0.00,VWS V14.01,2013-01-04 07:02:00,
2013-01-04 00:05:00,19.7,11.5,30.51,North,5,0.0,0.0,70,0.00,,---,0.00,VWS V14.01,2013-01-04 07:05:00,
2013-01-04 00:07:00,19.7,11.5,30.51,NNE,28,0.0,1.0,70,0.00,,---,0.00,VWS V14.01,2013-01-04 07:07:00,
2013-01-04 00:12:00,20.1,12.2,30.50,NNE,28,0.0,1.0,71,0.00,,---,0.00,VWS V14.01,2013-01-04 07:12:00,
2013-01-04 00:15:00,20.1,12.2,30.50,NNE,28,0.0,1.0,71,0.00,,---,0.00,VWS V14.01,2013-01-04 07:15:00,
2013-01-04 00:17:00,20.0,11.8,30.50,NNE,28,0.0,0.0,70,0.00,,---,0.00,VWS V14.01,2013-01-04 07:17:00,
2013-01-04 00:20:00,20.0,11.8,30.50,NNE,28,0.0,0.0,70,0.00,,---,0.00,VWS V14.01,2013-01-04 07:20:00,
2013-01-04 00:22:00,19.8,11.6,30.50,NNE,28,0.0,0.0,70,0.00,,---,0.00,VWS V14.01,2013-01-04 07:22:00,
2013-01-04 00:25:00,19.7,11.5,30.51,NNE,28,0.0,0.0,70,0.00,,---,0.00,VWS V14.01,2013-01-04 07:25:00,
2013-01-04 00:27:00,19.6,11.7,30.50,NNE,28,0.0,0.0,71,0.00,,---,0.00,VWS V14.01,2013-01-04 07:27:00,
2013-01-04 00:30:00,19.6,11.7,30.51,NNE,28,0.0,0.0,71,0.00,,---,0.00,VWS V14.01,2013-01-04 07:30:00,
2013-01-04 00:32:00,19.5,11.3,30.51,NNE,28,0.0,0.0,70,0.00,,---,0.00,VWS V14.01,2013-01-04 07:32:00,
2013-01-04 00:35:00,19.5,11.3,30.50,WNW,286,0.0,0.0,70,0.00,,---,0.00,VWS V14.01,2013-01-04 07:35:00,
2013-01-04 00:37:00,19.3,11.1,30.50,NW,321,1.0,1.0,70,0.00,,---,0.00,VWS V14.01,2013-01-04 07:37:00,
2013-01-04 00:42:00,19.4,10.6,30.50,NNW,343,2.0,5.0,68,0.00,,---,0.00,VWS V14.01,2013-01-04 07:42:00,
2013-01-04 00:45:00,19.5,10.3,30.50,NNW,333,1.0,5.0,67,0.00,,---,0.00,VWS V14.01,2013-01-04 07:45:00,
2013-01-04 00:47:00,19.5,10.0,30.50,NNW,347,4.0,4.0,66,0.00,,---,0.00,VWS V14.01,2013-01-04 07:47:00,
2013-01-04 00:50:00,19.5,9.7,30.50,North,355,2.0,5.0,65,0.00,,---,0.00,VWS V14.01,2013-01-04 07:50:00,
2013-01-04 00:52:00,19.5,9.3,30.50,NNW,343,2.0,4.0,64,0.00,,---,0.00,VWS V14.01,2013-01-04 07:52:00,
2013-01-04 00:55:00,19.5,9.3,30.50,North,351,1.0,4.0,64,0.00,,---,0.00,VWS V14.01,2013-01-04 07:55:00,
2013-01-04 00:57:00,19.4,8.9,30.50,NNW,338,5.0,5.0,63,0.00,,---,0.00,VWS V14.01,2013-01-04 07:57:00,
2013-01-04 01:00:00,19.4,8.9,30.50,NNW,348,3.0,5.0,63,0.00,,---,0.00,VWS V14.01,2013-01-04 08:00:00,
2013-01-04 01:02:00,19.4,8.5,30.50,NNE,17,3.0,3.0,62,0.00,,---,0.00,VWS V14.01,2013-01-04 08:02:00,
2013-01-04 01:05:00,19.4,8.5,30.50,NNE,17,3.0,3.0,62,0.00,,---,0.00,VWS V14.01,2013-01-04 08:05:00,
2013-01-04 01:07:00,19.4,8.2,30.50,NNW,348,3.0,4.0,61,0.00,,---,0.00,VWS V14.01,2013-01-04 08:07:00,
2013-01-04 01:12:00,19.3,8.1,30.50,North,355,4.0,4.0,61,0.00,,---,0.00,VWS V14.01,2013-01-04 08:12:00,
2013-01-04 01:17:00,19.1,7.9,30.50,North,360,6.0,6.0,61,0.00,,---,0.00,VWS V14.01,2013-01-04 08:17:00,
2013-01-04 01:22:00,18.9,7.7,30.50,NNW,347,5.0,6.0,61,0.00,,---,0.00,VWS V14.01,2013-01-04 08:22:00,
2013-01-04 01:25:00,18.8,7.6,30.50,North,355,0.0,6.0,61,0.00,,---,0.00,VWS V14.01,2013-01-04 08:25:00,
2013-01-04 01:27:00,18.6,7.8,30.50,NNW,342,2.0,2.0,62,0.00,,---,0.00,VWS V14.01,2013-01-04 08:27:00,
2013-01-04 01:32:00,18.5,7.7,30.50,North,355,5.0,7.0,62,0.00,,---,0.00,VWS V14.01,2013-01-04 08:32:00,
2013-01-04 01:35:00,18.4,7.9,30.50,NNW,348,3.0,7.0,63,0.00,,---,0.00,VWS V14.01,2013-01-04 08:35:00,
2013-01-04 01:37:00,18.4,7.9,30.50,NNW,344,2.0,4.0,63,0.00,,---,0.00,VWS V14.01,2013-01-04 08:37:00,
2013-01-04 01:40:00,18.2,8.1,30.50,NNW,334,2.0,4.0,64,0.00,,---,0.00,VWS V14.01,2013-01-04 08:40:00,
2013-01-04 01:42:00,18.1,8.0,30.50,NNW,337,2.0,5.0,64,0.00,,---,0.00,VWS V14.01,2013-01-04 08:42:00,
2013-01-04 01:47:00,18.0,8.2,30.50,North,349,2.0,5.0,65,0.00,,---,0.00,VWS V14.01,2013-01-04 08:47:00,
2013-01-04 01:50:00,18.0,8.2,30.50,North,360,5.0,5.0,65,0.00,,---,0.00,VWS V14.01,2013-01-04 08:50:00,
2013-01-04 01:52:00,17.9,8.1,30.50,NNW,327,3.0,4.0,65,0.00,,---,0.00,VWS V14.01,2013-01-04 08:52:00,
2013-01-04 01:57:00,17.7,8.3,30.50,NNW,332,3.0,5.0,66,0.00,,---,0.00,VWS V14.01,2013-01-04 08:57:00,
2013-01-04 02:00:00,17.7,8.6,30.50,North,360,4.0,5.0,67,0.00,,---,0.00,VWS V14.01,2013-01-04 09:00:00,
2013-01-04 02:02:00,17.5,8.8,30.51,NNW,340,2.0,3.0,68,0.00,,---,0.00,VWS V14.01,2013-01-04 09:02:00,
2013-01-04 02:05:00,17.5,8.8,30.51,NNW,340,2.0,3.0,68,0.00,,---,0.00,VWS V14.01,2013-01-04 09:05:00,
2013-01-04 02:07:00,17.1,9.0,30.51,NW,325,2.0,3.0,70,0.00,,---,0.00,VWS V14.01,2013-01-04 09:07:00,
2013-01-04 02:12:00,16.9,8.8,30.51,NNW,338,3.0,3.0,70,0.00,,---,0.00,VWS V14.01,2013-01-04 09:12:00,
2013-01-04 02:15:00,16.8,9.0,30.51,NW,324,1.0,3.0,71,0.00,,---,0.00,VWS V14.01,2013-01-04 09:15:00,
2013-01-04 02:17:00,16.7,8.9,30.51,NNW,342,1.0,1.0,71,0.00,,---,0.00,VWS V14.01,2013-01-04 09:17:00,
2013-01-04 02:22:00,16.5,8.4,30.51,NNW,342,2.0,5.0,70,0.00,,---,0.00,VWS V14.01,2013-01-04 09:22:00,
2013-01-04 02:25:00,16.4,8.3,30.51,NNW,347,3.0,5.0,70,0.00,,---,0.00,VWS V14.01,2013-01-04 09:25:00,
2013-01-04 02:27:00,16.3,7.9,30.51,North,350,3.0,3.0,69,0.00,,---,0.00,VWS V14.01,2013-01-04 09:27:00,
2013-01-04 02:30:00,16.2,7.8,30.51,NNW,342,3.0,3.0,69,0.00,,---,0.00,VWS V14.01,2013-01-04 09:30:00,
2013-01-04 02:32:00,16.1,7.7,30.51,NNW,341,2.0,3.0,69,0.00,,---,0.00,VWS V14.01,2013-01-04 09:32:00,
2013-01-04 02:35:00,15.9,7.2,30.51,NNW,331,1.0,3.0,68,0.00,,---,0.00,VWS V14.01,2013-01-04 09:35:00,
2013-01-04 02:37:00,15.8,6.8,30.51,NNW,342,3.0,3.0,67,0.00,,---,0.00,VWS V14.01,2013-01-04 09:37:00,
2013-01-04 02:42:00,15.5,5.8,30.51,NNW,331,6.0,6.0,65,0.00,,---,0.00,VWS V14.01,2013-01-04 09:42:00,
2013-01-04 02:46:00,15.4,5.4,30.51,NW,323,2.0,7.0,64,0.00,,---,0.00,VWS V14.01,2013-01-04 09:46:00,
2013-01-04 02:50:00,15.3,5.3,30.51,NW,317,4.0,7.0,64,0.00,,---,0.00,VWS V14.01,2013-01-04 09:50:00,
2013-01-04 02:51:00,15.3,5.3,30.51,NNW,331,2.0,4.0,64,0.00,,---,0.00,VWS V14.01,2013-01-04 09:51:00,
2013-01-04 02:57:00,15.2,5.2,30.51,North,351,4.0,4.0,64,0.00,,---,0.00,VWS V14.01,2013-01-04 09:57:00,
2013-01-04 03:00:00,15.2,5.2,30.51,North,355,4.0,4.0,64,0.00,,---,0.00,VWS V14.01,2013-01-04 10:00:00,
2013-01-04 03:02:00,15.1,5.1,30.51,NNW,344,3.0,3.0,64,0.00,,---,0.00,VWS V14.01,2013-01-04 10:02:00,
2013-01-04 03:07:00,15.2,5.6,30.51,North,355,3.0,3.0,65,0.00,,---,0.00,VWS V14.01,2013-01-04 10:07:00,
2013-01-04 03:10:00,15.2,5.6,30.51,NNW,338,3.0,6.0,65,0.00,,---,0.00,VWS V14.01,2013-01-04 10:10:00,
2013-01-04 03:12:00,15.2,5.6,30.51,NNW,345,3.0,7.0,65,0.00,,---,0.00,VWS V14.01,2013-01-04 10:12:00,
2013-01-04 03:15:00,15.2,5.6,30.51,NW,317,2.0,7.0,65,0.00,,---,0.00,VWS V14.01,2013-01-04 10:15:00,
2013-01-04 03:17:00,15.2,5.6,30.51,NNW,335,1.0,3.0,65,0.00,,---,0.00,VWS V14.01,2013-01-04 10:17:00,
2013-01-04 03:20:00,15.0,5.0,30.51,NNW,341,1.0,3.0,64,0.00,,---,0.00,VWS V14.01,2013-01-04 10:20:00,
2013-01-04 03:22:00,15.0,5.0,30.51,North,355,3.0,3.0,64,0.00,,---,0.00,VWS V14.01,2013-01-04 10:22:00,
2013-01-04 03:27:00,14.9,4.2,30.51,North,360,4.0,4.0,62,0.00,,---,0.00,VWS V14.01,2013-01-04 10:27:00,
2013-01-04 03:30:00,15.0,4.0,30.51,NW,318,1.0,6.0,61,0.00,,---,0.00,VWS V14.01,2013-01-04 10:30:00,
2013-01-04 03:32:00,14.9,3.9,30.51,NNW,341,3.0,3.0,61,0.00,,---,0.00,VWS V14.01,2013-01-04 10:32:00,
2013-01-04 03:35:00,14.9,3.9,30.51,NW,321,5.0,5.0,61,0.00,,---,0.00,VWS V14.01,2013-01-04 10:35:00,
2013-01-04 03:37:00,14.9,3.9,30.51,NNW,337,3.0,5.0,61,0.00,,---,0.00,VWS V14.01,2013-01-04 10:37:00,
2013-01-04 03:40:00,14.8,3.8,30.51,North,5,4.0,5.0,61,0.00,,---,0.00,VWS V14.01,2013-01-04 10:40:00,
2013-01-04 03:42:00,14.8,3.4,30.51,North,355,2.0,2.0,60,0.00,,---,0.00,VWS V14.01,2013-01-04 10:42:00,
2013-01-04 03:45:00,14.7,3.3,30.51,NNW,342,2.0,2.0,60,0.00,,---,0.00,VWS V14.01,2013-01-04 10:45:00,
2013-01-04 03:47:00,14.7,3.3,30.51,North,360,2.0,2.0,60,0.00,,---,0.00,VWS V14.01,2013-01-04 10:47:00,
2013-01-04 03:50:00,14.6,3.2,30.52,NW,325,1.0,2.0,60,0.00,,---,0.00,VWS V14.01,2013-01-04 10:50:00,
2013-01-04 03:52:00,14.6,3.2,30.51,NNW,346,3.0,5.0,60,0.00,,---,0.00,VWS V14.01,2013-01-04 10:52:00,
2013-01-04 03:55:00,14.5,2.8,30.51,NNW,344,2.0,5.0,59,0.00,,---,0.00,VWS V14.01,2013-01-04 10:55:00,
2013-01-04 03:57:00,14.5,2.8,30.51,NNW,346,3.0,6.0,59,0.00,,---,0.00,VWS V14.01,2013-01-04 10:57:00,
2013-01-04 04:00:00,14.4,2.7,30.51,North,355,8.0,9.0,59,0.00,,---,0.00,VWS V14.01,2013-01-04 11:00:00,
2013-01-04 04:01:00,14.4,2.3,30.52,North,360,9.0,9.0,58,0.00,,---,0.00,VWS V14.01,2013-01-04 11:01:00,
2013-01-04 04:05:00,14.3,2.2,30.52,NNW,329,5.0,9.0,58,0.00,,---,0.00,VWS V14.01,2013-01-04 11:05:00,
2013-01-04 04:06:00,14.2,2.2,30.51,NNW,340,4.0,6.0,58,0.00,,---,0.00,VWS V14.01,2013-01-04 11:06:00,
2013-01-04 04:10:00,14.2,2.2,30.51,NW,315,1.0,6.0,58,0.00,,---,0.00,VWS V14.01,2013-01-04 11:10:00,
2013-01-04 04:11:00,14.1,2.0,30.51,North,360,2.0,7.0,58,0.00,,---,0.00,VWS V14.01,2013-01-04 11:11:00,
2013-01-04 04:15:00,14.0,2.0,30.51,North,360,5.0,9.0,58,0.00,,---,0.00,VWS V14.01,2013-01-04 11:15:00,
2013-01-04 04:16:00,14.0,2.0,30.51,NNW,344,3.0,6.0,58,0.00,,---,0.00,VWS V14.01,2013-01-04 11:16:00,
2013-01-04 04:20:00,13.9,1.9,30.51,NW,318,6.0,7.0,58,0.00,,---,0.00,VWS V14.01,2013-01-04 11:20:00,
2013-01-04 04:21:00,13.9,1.9,30.51,North,9,3.0,7.0,58,0.00,,---,0.00,VWS V14.01,2013-01-04 11:21:00,
2013-01-04 04:26:00,13.8,1.4,30.51,NW,323,2.0,7.0,57,0.00,,---,0.00,VWS V14.01,2013-01-04 11:26:00,
2013-01-04 04:30:00,13.8,1.4,30.51,North,355,2.0,7.0,57,0.00,,---,0.00,VWS V14.01,2013-01-04 11:30:00,
2013-01-04 04:31:00,13.8,1.4,30.51,NNW,334,6.0,6.0,57,0.00,,---,0.00,VWS V14.01,2013-01-04 11:31:00,
2013-01-04 04:36:00,13.8,1.4,30.51,NNE,16,5.0,6.0,57,0.00,,---,0.00,VWS V14.01,2013-01-04 11:36:00,
2013-01-04 04:41:00,13.8,1.4,30.51,NNW,333,4.0,6.0,57,0.00,,---,0.00,VWS V14.01,2013-01-04 11:41:00,
2013-01-04 04:46:00,13.7,1.3,30.51,NW,319,2.0,6.0,57,0.00,,---,0.00,VWS V14.01,2013-01-04 11:46:00,
2013-01-04 04:51:00,13.6,1.6,30.51,North,5,6.0,6.0,58,0.00,,---,0.00,VWS V14.01,2013-01-04 11:51:00,
2013-01-04 04:55:00,13.6,1.6,30.51,North,5,6.0,6.0,58,0.00,,---,0.00,VWS V14.01,2013-01-04 11:55:00,
2013-01-04 04:56:00,13.5,1.9,30.51,NNW,336,3.0,3.0,59,0.00,,---,0.00,VWS V14.01,2013-01-04 11:56:00,
2013-01-04 05:01:00,13.4,1.8,30.51,North,355,5.0,5.0,59,0.00,,---,0.00,VWS V14.01,2013-01-04 12:01:00,
2013-01-04 05:05:00,13.3,2.4,30.51,NNW,342,2.0,5.0,61,0.00,,---,0.00,VWS V14.01,2013-01-04 12:05:00,
2013-01-04 05:06:00,13.2,2.6,30.51,NW,318,0.0,7.0,62,0.00,,---,0.00,VWS V14.01,2013-01-04 12:06:00,
2013-01-04 05:10:00,13.1,2.9,30.51,North,350,1.0,7.0,63,0.00,,---,0.00,VWS V14.01,2013-01-04 12:10:00,
2013-01-04 05:11:00,13.0,2.8,30.51,NW,326,1.0,3.0,63,0.00,,---,0.00,VWS V14.01,2013-01-04 12:11:00,
2013-01-04 05:15:00,12.9,3.0,30.51,NW,315,3.0,4.0,64,0.00,,---,0.00,VWS V14.01,2013-01-04 12:15:00,
2013-01-04 05:16:00,12.9,3.4,30.51,North,355,2.0,5.0,65,0.00,,---,0.00,VWS V14.01,2013-01-04 12:16:00,
2013-01-04 05:20:00,12.9,3.7,30.51,North,350,3.0,5.0,66,0.00,,---,0.00,VWS V14.01,2013-01-04 12:20:00,
2013-01-04 05:21:00,12.9,3.7,30.51,NNW,338,5.0,5.0,66,0.00,,---,0.00,VWS V14.01,2013-01-04 12:21:00,
2013-01-04 05:25:00,12.9,3.7,30.51,North,355,2.0,5.0,66,0.00,,---,0.00,VWS V14.01,2013-01-04 12:25:00,
2013-01-04 05:26:00,12.9,3.4,30.51,NNW,331,3.0,3.0,65,0.00,,---,0.00,VWS V14.01,2013-01-04 12:26:00,
2013-01-04 05:30:00,12.9,3.4,30.51,NNW,331,3.0,3.0,65,0.00,,---,0.00,VWS V14.01,2013-01-04 12:30:00,
2013-01-04 05:31:00,13.0,3.1,30.51,NNW,330,5.0,5.0,64,0.00,,---,0.00,VWS V14.01,2013-01-04 12:31:00,
2013-01-04 05:36:00,13.0,3.1,30.52,NNW,332,3.0,5.0,64,0.00,,---,0.00,VWS V14.01,2013-01-04 12:36:00,
2013-01-04 05:40:00,13.0,3.1,30.52,NNW,332,3.0,5.0,64,0.00,,---,0.00,VWS V14.01,2013-01-04 12:40:00,
2013-01-04 05:41:00,13.1,2.9,30.52,North,355,2.0,3.0,63,0.00,,---,0.00,VWS V14.01,2013-01-04 12:41:00,
2013-01-04 05:46:00,13.1,2.9,30.52,NNW,333,1.0,3.0,63,0.00,,---,0.00,VWS V14.01,2013-01-04 12:46:00,
2013-01-04 05:51:00,13.0,2.4,30.52,NNW,340,2.0,3.0,62,0.00,,---,0.00,VWS V14.01,2013-01-04 12:51:00,
2013-01-04 05:55:00,13.0,2.4,30.52,NNW,342,1.0,3.0,62,0.00,,---,0.00,VWS V14.01,2013-01-04 12:55:00,
2013-01-04 05:56:00,12.9,2.3,30.52,NW,323,3.0,3.0,62,0.00,,---,0.00,VWS V14.01,2013-01-04 12:56:00,
2013-01-04 06:01:00,12.8,2.2,30.52,North,5,3.0,3.0,62,0.00,,---,0.00,VWS V14.01,2013-01-04 13:01:00,
2013-01-04 06:06:00,12.7,1.8,30.52,North,11,1.0,3.0,61,0.00,,---,0.00,VWS V14.01,2013-01-04 13:06:00,
2013-01-04 06:10:00,12.6,2.1,30.52,NW,324,1.0,3.0,62,0.00,,---,0.00,VWS V14.01,2013-01-04 13:10:00,
2013-01-04 06:11:00,12.5,2.0,30.52,NNW,336,2.0,4.0,62,0.00,,---,0.00,VWS V14.01,2013-01-04 13:11:00,
2013-01-04 06:15:00,12.5,2.0,30.52,NNW,338,5.0,7.0,62,0.00,,---,0.00,VWS V14.01,2013-01-04 13:15:00,
2013-01-04 06:16:00,12.5,2.0,30.52,North,350,2.0,8.0,62,0.00,,---,0.00,VWS V14.01,2013-01-04 13:16:00,
2013-01-04 06:20:00,12.5,2.0,30.52,NW,306,5.0,8.0,62,0.00,,---,0.00,VWS V14.01,2013-01-04 13:20:00,
2013-01-04 06:21:00,12.5,2.0,30.52,NNW,339,3.0,6.0,62,0.00,,---,0.00,VWS V14.01,2013-01-04 13:21:00,
2013-01-04 06:25:00,12.4,1.9,30.52,NNW,346,3.0,6.0,62,0.00,,---,0.00,VWS V14.01,2013-01-04 13:25:00,
2013-01-04 06:26:00,12.4,1.9,30.52,North,360,2.0,3.0,62,0.00,,---,0.00,VWS V14.01,2013-01-04 13:26:00,
2013-01-04 06:30:00,12.4,1.9,30.52,North,360,2.0,3.0,62,0.00,,---,0.00,VWS V14.01,2013-01-04 13:30:00,
2013-01-04 06:31:00,12.3,1.4,30.52,North,355,3.0,3.0,61,0.00,,---,0.00,VWS V14.01,2013-01-04 13:31:00,
2013-01-04 06:36:00,12.3,1.4,30.52,NNW,346,4.0,4.0,61,0.00,,---,0.00,VWS V14.01,2013-01-04 13:36:00,
2013-01-04 06:41:00,12.3,1.1,30.52,North,9,2.0,5.0,60,0.00,,---,0.00,VWS V14.01,2013-01-04 13:41:00,
2013-01-04 06:46:00,12.2,1.0,30.53,NNW,340,2.0,5.0,60,0.00,,---,0.00,VWS V14.01,2013-01-04 13:46:00,
2013-01-04 06:50:00,12.2,1.0,30.53,NNW,340,2.0,5.0,60,0.00,,---,0.00,VWS V14.01,2013-01-04 13:50:00,
2013-01-04 06:51:00,12.1,0.9,30.53,NNW,343,3.0,3.0,60,0.00,,---,0.00,VWS V14.01,2013-01-04 13:51:00,
2013-01-04 06:55:00,12.1,0.9,30.53,NNW,343,3.0,3.0,60,0.00,,---,0.00,VWS V14.01,2013-01-04 13:55:00,
2013-01-04 06:56:00,11.9,0.7,30.53,NNW,347,5.0,5.0,60,0.00,,---,0.00,VWS V14.01,2013-01-04 13:56:00,
2013-01-04 07:01:00,11.8,0.6,30.53,NNW,340,8.0,8.0,60,0.00,,---,0.00,VWS V14.01,2013-01-04 14:01:00,
2013-01-04 07:06:00,11.6,0.8,30.53,NNW,334,1.0,8.0,61,0.00,,---,0.00,VWS V14.01,2013-01-04 14:06:00,
2013-01-04 07:10:00,11.6,0.8,30.53,NNW,334,1.0,8.0,61,0.00,,---,0.00,VWS V14.01,2013-01-04 14:10:00,
2013-01-04 07:11:00,11.4,0.6,30.54,NNW,340,4.0,8.0,61,0.00,,---,0.00,VWS V14.01,2013-01-04 14:11:00,
2013-01-04 07:15:00,11.3,0.5,30.54,NNW,345,2.0,9.0,61,0.00,,---,0.00,VWS V14.01,2013-01-04 14:15:00,
2013-01-04 07:16:00,11.3,0.5,30.53,NNW,339,2.0,5.0,61,0.00,,---,0.00,VWS V14.01,2013-01-04 14:16:00,
2013-01-04 07:20:00,11.2,0.7,30.54,NW,323,2.0,5.0,62,0.00,,---,0.00,VWS V14.01,2013-01-04 14:20:00,
2013-01-04 07:21:00,11.2,0.7,30.54,North,10,4.0,4.0,62,0.00,,---,0.00,VWS V14.01,2013-01-04 14:21:00,
2013-01-04 07:25:00,11.1,0.6,30.54,North,355,3.0,8.0,62,0.00,,---,0.00,VWS V14.01,2013-01-04 14:25:00,
2013-01-04 07:26:00,11.0,0.5,30.54,NNW,345,3.0,6.0,62,0.00,,---,0.00,VWS V14.01,2013-01-04 14:26:00,
2013-01-04 07:30:00,11.0,0.9,30.54,NNW,334,2.0,9.0,63,0.00,,---,0.00,VWS V14.01,2013-01-04 14:30:00,
2013-01-04 07:31:00,10.9,0.8,30.54,NNW,338,6.0,6.0,63,0.00,,---,0.00,VWS V14.01,2013-01-04 14:31:00,
2013-01-04 07:35:00,10.8,1.0,30.55,North,360,2.0,6.0,64,0.00,,---,0.00,VWS V14.01,2013-01-04 14:35:00,
2013-01-04 07:36:00,10.8,1.0,30.55,North,349,3.0,3.0,64,0.00,,---,0.00,VWS V14.01,2013-01-04 14:36:00,
2013-01-04 07:40:00,10.8,1.0,30.55,North,349,3.0,3.0,64,0.00,,---,0.00,VWS V14.01,2013-01-04 14:40:00,
2013-01-04 07:45:00,10.9,1.8,30.55,NNW,338,1.0,4.0,66,0.00,,---,0.00,VWS V14.01,2013-01-04 14:45:00,
2013-01-04 07:50:00,11.0,2.2,30.55,NNW,338,2.0,6.0,67,0.00,,---,0.00,VWS V14.01,2013-01-04 14:50:00,
2013-01-04 07:55:00,11.3,2.5,30.55,NNW,338,3.0,7.0,67,0.00,,---,0.00,VWS V14.01,2013-01-04 14:55:00,
2013-01-04 08:00:00,11.6,2.5,30.55,North,0,4.0,7.0,66,0.00,,---,0.00,VWS V14.01,2013-01-04 15:00:00,
2013-01-04 08:05:00,11.8,2.7,30.55,NNW,338,3.0,7.0,66,0.00,,---,0.00,VWS V14.01,2013-01-04 15:05:00,
2013-01-04 08:10:00,12.1,2.3,30.56,NNW,338,3.0,7.0,64,0.00,,---,0.00,VWS V14.01,2013-01-04 15:10:00,
2013-01-04 08:15:00,12.5,2.3,30.56,North,0,2.0,5.0,63,0.00,,---,0.00,VWS V14.01,2013-01-04 15:15:00,
2013-01-04 08:20:00,12.8,2.2,30.56,NNW,338,2.0,6.0,62,0.00,,---,0.00,VWS V14.01,2013-01-04 15:20:00,
2013-01-04 08:25:00,13.2,2.3,30.56,NNW,338,2.0,5.0,61,0.00,,---,0.00,VWS V14.01,2013-01-04 15:25:00,
2013-01-04 08:30:00,13.5,1.9,30.56,NNW,338,2.0,3.0,59,0.00,,---,0.00,VWS V14.01,2013-01-04 15:30:00,
2013-01-04 08:35:00,13.7,2.0,30.56,NNW,338,2.0,5.0,59,0.00,,---,0.00,VWS V14.01,2013-01-04 15:35:00,
2013-01-04 08:40:00,13.8,2.1,30.56,North,0,2.0,6.0,59,0.00,,---,0.00,VWS V14.01,2013-01-04 15:40:00,
2013-01-04 08:45:00,13.9,2.6,30.56,NNW,338,3.0,7.0,60,0.00,,---,0.00,VWS V14.01,2013-01-04 15:45:00,
2013-01-04 08:50:00,14.2,2.5,30.56,NNW,338,2.0,5.0,59,0.00,,---,0.00,VWS V14.01,2013-01-04 15:50:00,
2013-01-04 08:55:00,14.9,3.2,30.56,NNW,338,2.0,5.0,59,0.00,,---,0.00,VWS V14.01,2013-01-04 15:55:00,
2013-01-04 09:00:00,15.2,3.1,30.56,NNW,338,2.0,5.0,58,0.00,,---,0.00,VWS V14.01,2013-01-04 16:00:00,
2013-01-04 09:05:00,15.6,3.5,30.56,NW,315,2.0,4.0,58,0.00,,---,0.00,VWS V14.01,2013-01-04 16:05:00,
2013-01-04 09:10:00,16.0,3.5,30.56,North,0,2.0,6.0,57,0.00,,---,0.00,VWS V14.01,2013-01-04 16:10:00,
2013-01-04 09:18:00,16.0,3.5,30.56,North,0,2.0,6.0,57,0.00,,---,0.00,VWS V14.01,2013-01-04 16:18:00,
2013-01-04 09:20:00,16.4,3.5,30.57,NNW,342,7.0,7.0,56,0.00,,---,0.00,VWS V14.01,2013-01-04 16:20:00,
2013-01-04 09:23:00,16.6,3.3,30.57,NW,318,0.0,5.0,55,0.00,,---,0.00,VWS V14.01,2013-01-04 16:23:00,
2013-01-04 09:25:00,16.6,3.3,30.57,NW,318,0.0,5.0,55,0.00,,---,0.00,VWS V14.01,2013-01-04 16:25:00,
2013-01-04 09:28:00,16.8,3.0,30.57,North,350,2.0,4.0,54,0.00,,---,0.00,VWS V14.01,2013-01-04 16:28:00,
2013-01-04 09:33:00,17.2,3.0,30.57,NNW,342,1.0,4.0,53,0.00,,---,0.00,VWS V14.01,2013-01-04 16:33:00,
2013-01-04 09:35:00,17.2,3.0,30.57,NNW,342,1.0,4.0,53,0.00,,---,0.00,VWS V14.01,2013-01-04 16:35:00,
2013-01-04 09:38:00,17.4,3.2,30.57,North,355,0.0,3.0,53,0.00,,---,0.00,VWS V14.01,2013-01-04 16:38:00,
2013-01-04 09:40:00,17.4,3.2,30.57,North,355,0.0,3.0,53,0.00,,---,0.00,VWS V14.01,2013-01-04 16:40:00,
2013-01-04 09:43:00,17.8,3.6,30.57,NNW,332,3.0,3.0,53,0.00,,---,0.00,VWS V14.01,2013-01-04 16:43:00,
2013-01-04 09:48:00,18.1,3.0,30.57,NW,313,0.0,3.0,51,0.00,,---,0.00,VWS V14.01,2013-01-04 16:48:00,
2013-01-04 09:53:00,18.5,3.4,30.57,WNW,291,2.0,4.0,51,0.00,,---,0.00,VWS V14.01,2013-01-04 16:53:00,
2013-01-04 09:55:00,18.5,3.4,30.57,WNW,291,2.0,4.0,51,0.00,,---,0.00,VWS V14.01,2013-01-04 16:55:00,
2013-01-04 09:58:00,18.6,3.5,30.57,NNW,330,2.0,4.0,51,0.00,,---,0.00,VWS V14.01,2013-01-04 16:58:00,
2013-01-04 10:00:00,19.0,3.4,30.57,NNW,336,1.0,4.0,50,0.00,,---,0.00,VWS V14.01,2013-01-04 17:00:00,
2013-01-04 10:03:00,19.8,3.7,30.58,North,355,2.0,6.0,49,0.00,,---,0.00,VWS V14.01,2013-01-04 17:03:00,
2013-01-04 10:05:00,19.9,4.3,30.58,NW,317,2.0,6.0,50,0.00,,---,0.00,VWS V14.01,2013-01-04 17:05:00,
2013-01-04 10:08:00,19.9,3.8,30.58,NNW,336,1.0,5.0,49,0.00,,---,0.00,VWS V14.01,2013-01-04 17:08:00,
2013-01-04 10:10:00,20.0,3.9,30.58,NNW,333,2.0,5.0,49,0.00,,---,0.00,VWS V14.01,2013-01-04 17:10:00,
2013-01-04 10:13:00,20.5,4.4,30.57,North,355,2.0,5.0,49,0.00,,---,0.00,VWS V14.01,2013-01-04 17:13:00,
2013-01-04 10:15:00,20.5,4.4,30.57,NW,311,2.0,5.0,49,0.00,,---,0.00,VWS V14.01,2013-01-04 17:15:00,
2013-01-04 10:18:00,20.6,4.9,30.57,NNW,340,3.0,4.0,50,0.00,,---,0.00,VWS V14.01,2013-01-04 17:18:00,
2013-01-04 10:23:00,20.8,5.5,30.57,NNE,20,1.0,4.0,51,0.00,,---,0.00,VWS V14.01,2013-01-04 17:23:00,
2013-01-04 10:25:00,20.8,5.5,30.57,NNE,20,1.0,4.0,51,0.00,,---,0.00,VWS V14.01,2013-01-04 17:25:00,
2013-01-04 10:28:00,21.1,5.4,30.57,North,355,1.0,3.0,50,0.00,,---,0.00,VWS V14.01,2013-01-04 17:28:00,
2013-01-04 10:30:00,21.2,5.5,30.57,NNW,338,2.0,5.0,50,0.00,,---,0.00,VWS V14.01,2013-01-04 17:30:00,
2013-01-04 10:35:00,21.6,6.7,30.56,NNW,338,2.0,4.0,52,0.00,,---,0.00,VWS V14.01,2013-01-04 17:35:00,
2013-01-04 10:40:00,21.7,6.8,30.56,NW,315,1.0,5.0,52,0.00,,---,0.00,VWS V14.01,2013-01-04 17:40:00,
2013-01-04 10:45:00,22.0,7.1,30.56,NNW,338,1.0,4.0,52,0.00,,---,0.00,VWS V14.01,2013-01-04 17:45:00,
2013-01-04 10:50:00,22.2,7.7,30.55,NNW,338,1.0,3.0,53,0.00,,---,0.00,VWS V14.01,2013-01-04 17:50:00,
2013-01-04 10:55:00,22.6,7.2,30.55,NNW,338,1.0,3.0,51,0.00,,---,0.00,VWS V14.01,2013-01-04 17:55:00,
2013-01-04 11:00:00,23.4,7.5,30.55,North,0,1.0,5.0,50,0.00,,---,0.00,VWS V14.01,2013-01-04 18:00:00,
2013-01-04 11:05:00,24.2,7.3,30.55,NNE,22,0.0,3.0,48,0.00,,---,0.00,VWS V14.01,2013-01-04 18:05:00,
2013-01-04 11:10:00,25.0,8.1,30.54,NNE,22,1.0,3.0,48,0.00,,---,0.00,VWS V14.01,2013-01-04 18:10:00,
2013-01-04 11:15:00,24.7,7.8,30.54,NW,315,1.0,3.0,48,0.00,,---,0.00,VWS V14.01,2013-01-04 18:15:00,
2013-01-04 11:23:00,24.7,7.8,30.54,NW,315,1.0,3.0,48,0.00,,---,0.00,VWS V14.01,2013-01-04 18:23:00,
2013-01-04 11:25:00,25.1,7.2,30.53,NW,315,2.0,2.0,46,0.00,,---,0.00,VWS V14.01,2013-01-04 18:25:00,
2013-01-04 11:28:00,25.3,7.4,30.52,WNW,286,0.0,3.0,46,0.00,,---,0.00,VWS V14.01,2013-01-04 18:28:00,
2013-01-04 11:30:00,25.3,7.4,30.52,WNW,288,0.0,3.0,46,0.00,,---,0.00,VWS V14.01,2013-01-04 18:30:00,
2013-01-04 11:33:00,25.5,7.6,30.52,WSW,246,0.0,3.0,46,0.00,,---,0.00,VWS V14.01,2013-01-04 18:33:00,
2013-01-04 11:35:00,25.7,7.8,30.52,West,262,1.0,3.0,46,0.00,,---,0.00,VWS V14.01,2013-01-04 18:35:00,
2013-01-04 11:38:00,26.2,7.8,30.52,West,262,0.0,4.0,45,0.00,,---,0.00,VWS V14.01,2013-01-04 18:38:00,
2013-01-04 11:40:00,26.3,8.4,30.52,West,260,2.0,4.0,46,0.00,,---,0.00,VWS V14.01,2013-01-04 18:40:00,
2013-01-04 11:43:00,26.7,8.7,30.51,NW,315,2.0,2.0,46,0.00,,---,0.00,VWS V14.01,2013-01-04 18:43:00,
2013-01-04 11:45:00,26.9,8.9,30.51,North,355,3.0,4.0,46,0.00,,---,0.00,VWS V14.01,2013-01-04 18:45:00,
2013-01-04 11:48:00,26.5,8.5,30.51,WNW,284,0.0,3.0,46,0.00,,---,0.00,VWS V14.01,2013-01-04 18:48:00,
2013-01-04 11:50:00,26.7,8.7,30.51,West,279,0.0,3.0,46,0.00,,---,0.00,VWS V14.01,2013-01-04 18:50:00,
2013-01-04 11:53:00,27.3,8.3,30.50,WSW,248,1.0,3.0,44,0.00,,---,0.00,VWS V14.01,2013-01-04 18:53:00,
2013-01-04 11:55:00,27.1,8.6,30.50,SSW,202,1.0,3.0,45,0.00,,---,0.00,VWS V14.01,2013-01-04 18:55:00,
2013-01-04 11:58:00,27.2,8.7,30.50,NNW,336,0.0,2.0,45,0.00,,---,0.00,VWS V14.01,2013-01-04 18:58:00,
2013-01-04 12:00:00,27.2,8.7,30.50,West,259,3.0,3.0,45,0.00,,---,0.00,VWS V14.01,2013-01-04 19:00:00,
2013-01-04 12:03:00,27.1,8.6,30.50,West,263,1.0,3.0,45,0.00,,---,0.00,VWS V14.01,2013-01-04 19:03:00,
2013-01-04 12:05:00,26.8,8.3,30.50,WSW,242,2.0,3.0,45,0.00,,---,0.00,VWS V14.01,2013-01-04 19:05:00,
2013-01-04 12:08:00,27.4,8.9,30.49,NW,315,0.0,2.0,45,0.00,,---,0.00,VWS V14.01,2013-01-04 19:08:00,
2013-01-04 12:10:00,27.4,8.9,30.49,NW,313,0.0,2.0,45,0.00,,---,0.00,VWS V14.01,2013-01-04 19:10:00,
2013-01-04 12:13:00,27.2,8.7,30.49,NNW,342,2.0,3.0,45,0.00,,---,0.00,VWS V14.01,2013-01-04 19:13:00,
2013-01-04 12:15:00,27.1,9.1,30.49,SSW,207,1.0,3.0,46,0.00,,---,0.00,VWS V14.01,2013-01-04 19:15:00,
2013-01-04 12:18:00,28.0,9.4,30.49,SW,225,1.0,3.0,45,0.00,,---,0.00,VWS V14.01,2013-01-04 19:18:00,
2013-01-04 12:20:00,28.2,9.6,30.49,WSW,242,2.0,4.0,45,0.00,,---,0.00,VWS V14.01,2013-01-04 19:20:00,
2013-01-04 12:25:00,29.0,9.8,30.48,SW,225,1.0,3.0,44,0.00,,---,0.00,VWS V14.01,2013-01-04 19:25:00,
2013-01-04 12:30:00,28.2,9.1,30.48,WNW,292,1.0,4.0,44,0.00,,---,0.00,VWS V14.01,2013-01-04 19:30:00,
2013-01-04 12:38:00,28.2,9.1,30.48,WNW,292,1.0,4.0,44,0.00,,---,0.00,VWS V14.01,2013-01-04 19:38:00,
2013-01-04 12:40:00,29.5,8.7,30.47,SW,236,3.0,3.0,41,0.00,,---,0.00,VWS V14.01,2013-01-04 19:40:00,
2013-01-04 12:43:00,30.2,9.4,30.47,East,84,2.0,3.0,41,0.00,,---,0.00,VWS V14.01,2013-01-04 19:43:00,
2013-01-04 12:45:00,30.1,8.7,30.47,East,84,0.0,3.0,40,0.00,,---,0.00,VWS V14.01,2013-01-04 19:45:00,
2013-01-04 12:48:00,30.2,8.8,30.46,ESE,117,3.0,3.0,40,0.00,,---,0.00,VWS V14.01,2013-01-04 19:48:00,
2013-01-04 12:50:00,30.0,8.1,30.46,ESE,114,3.0,4.0,39,0.00,,---,0.00,VWS V14.01,2013-01-04 19:50:00,
2013-01-04 12:53:00,29.7,6.6,30.46,ESE,122,3.0,4.0,37,0.00,,---,0.00,VWS V14.01,2013-01-04 19:53:00,
2013-01-04 12:55:00,29.8,7.3,30.46,ESE,119,3.0,4.0,38,0.00,,---,0.00,VWS V14.01,2013-01-04 19:55:00,
2013-01-04 12:58:00,29.7,7.2,30.45,SE,127,1.0,3.0,38,0.00,,---,0.00,VWS V14.01,2013-01-04 19:58:00,
2013-01-04 13:00:00,29.9,7.4,30.45,East,97,1.0,3.0,38,0.00,,---,0.00,VWS V14.01,2013-01-04 20:00:00,
2013-01-04 13:03:00,30.1,7.0,30.45,NNW,338,1.0,3.0,37,0.00,,---,0.00,VWS V14.01,2013-01-04 20:03:00,
2013-01-04 13:05:00,30.1,7.0,30.45,NNW,337,2.0,3.0,37,0.00,,---,0.00,VWS V14.01,2013-01-04 20:05:00,
2013-01-04 13:08:00,30.7,7.5,30.45,NW,321,1.0,3.0,37,0.00,,---,0.00,VWS V14.01,2013-01-04 20:08:00,
2013-01-04 13:10:00,30.8,7.0,30.44,NW,321,0.0,3.0,36,0.00,,---,0.00,VWS V14.01,2013-01-04 20:10:00,
2013-01-04 13:13:00,31.1,6.7,30.44,NW,322,1.0,3.0,35,0.00,,---,0.00,VWS V14.01,2013-01-04 20:13:00,
2013-01-04 13:15:00,30.8,5.8,30.44,NW,322,1.0,3.0,34,0.00,,---,0.00,VWS V14.01,2013-01-04 20:15:00,
2013-01-04 13:18:00,30.3,5.9,30.44,WSW,240,1.0,4.0,35,0.00,,---,0.00,VWS V14.01,2013-01-04 20:18:00,
2013-01-04 13:20:00,30.5,6.1,30.44,WNW,295,1.0,4.0,35,0.00,,---,0.00,VWS V14.01,2013-01-04 20:20:00,
2013-01-04 13:23:00,32.2,7.0,30.44,NE,39,3.0,4.0,34,0.00,,---,0.00,VWS V14.01,2013-01-04 20:23:00,
2013-01-04 13:25:00,32.3,6.4,30.44,East,99,1.0,4.0,33,0.00,,---,0.00,VWS V14.01,2013-01-04 20:25:00,
2013-01-04 13:28:00,32.6,6.7,30.43,NE,53,0.0,4.0,33,0.00,,---,0.00,VWS V14.01,2013-01-04 20:28:00,
2013-01-04 13:30:00,32.5,6.6,30.43,NE,49,2.0,4.0,33,0.00,,---,0.00,VWS V14.01,2013-01-04 20:30:00,
2013-01-04 13:33:00,32.2,6.3,30.43,NE,35,1.0,3.0,33,0.00,,---,0.00,VWS V14.01,2013-01-04 20:33:00,
2013-01-04 13:35:00,32.1,6.2,30.43,NE,42,1.0,3.0,33,0.00,,---,0.00,VWS V14.01,2013-01-04 20:35:00,
2013-01-04 13:38:00,32.3,7.1,30.43,NE,34,1.0,1.0,34,0.00,,---,0.00,VWS V14.01,2013-01-04 20:38:00,
2013-01-04 13:40:00,32.4,6.5,30.43,SSW,208,1.0,1.0,33,0.00,,---,0.00,VWS V14.01,2013-01-04 20:40:00,
2013-01-04 13:43:00,32.9,6.3,30.43,WSW,238,2.0,3.0,32,0.00,,---,0.00,VWS V14.01,2013-01-04 20:43:00,
2013-01-04 13:45:00,32.8,6.2,30.43,SW,232,3.0,3.0,32,0.00,,---,0.00,VWS V14.01,2013-01-04 20:45:00,
2013-01-04 13:48:00,32.6,6.7,30.43,West,263,1.0,4.0,33,0.00,,---,0.00,VWS V14.01,2013-01-04 20:48:00,
2013-01-04 13:50:00,32.3,5.8,30.42,ESE,107,1.0,4.0,32,0.00,,---,0.00,VWS V14.01,2013-01-04 20:50:00,
2013-01-04 13:53:00,32.8,6.9,30.42,SE,126,0.0,3.0,33,0.00,,---,0.00,VWS V14.01,2013-01-04 20:53:00,
2013-01-04 13:55:00,33.1,6.5,30.42,SE,126,0.0,3.0,32,0.00,,---,0.00,VWS V14.01,2013-01-04 20:55:00,
2013-01-04 13:58:00,33.9,6.5,30.42,West,267,2.0,3.0,31,0.00,,---,0.00,VWS V14.01,2013-01-04 20:58:00,
2013-01-04 14:00:00,33.8,6.4,30.42,West,280,0.0,3.0,31,0.00,,---,0.00,VWS V14.01,2013-01-04 21:00:00,
2013-01-04 14:03:00,33.1,5.8,30.42,SSW,194,3.0,4.0,31,0.00,,---,0.00,VWS V14.01,2013-01-04 21:03:00,
2013-01-04 14:08:00,33.8,6.4,30.42,West,271,0.0,4.0,31,0.00,,---,0.00,VWS V14.01,2013-01-04 21:08:00,
2013-01-04 14:10:00,34.3,6.8,30.42,SSW,210,4.0,4.0,31,0.00,,---,0.00,VWS V14.01,2013-01-04 21:10:00,
2013-01-04 14:13:00,33.5,5.4,30.42,South,188,3.0,6.0,30,0.00,,---,0.00,VWS V14.01,2013-01-04 21:13:00,
2013-01-04 14:15:00,33.2,5.1,30.42,South,190,3.0,6.0,30,0.00,,---,0.00,VWS V14.01,2013-01-04 21:15:00,
2013-01-04 14:18:00,33.5,5.4,30.41,SW,236,2.0,4.0,30,0.00,,---,0.00,VWS V14.01,2013-01-04 21:18:00,
2013-01-04 14:20:00,33.5,5.4,30.41,SW,214,2.0,4.0,30,0.00,,---,0.00,VWS V14.01,2013-01-04 21:20:00,
2013-01-04 14:23:00,33.5,5.4,30.41,SW,224,0.0,4.0,30,0.00,,---,0.00,VWS V14.01,2013-01-04 21:23:00,
2013-01-04 14:25:00,33.4,5.3,30.41,SW,225,1.0,4.0,30,0.00,,---,0.00,VWS V14.01,2013-01-04 21:25:00,
2013-01-04 14:28:00,33.9,5.8,30.42,West,267,3.0,4.0,30,0.00,,---,0.00,VWS V14.01,2013-01-04 21:28:00,
2013-01-04 14:30:00,34.0,5.8,30.41,SSW,213,1.0,4.0,30,0.00,,---,0.00,VWS V14.01,2013-01-04 21:30:00,
2013-01-04 14:33:00,33.7,5.6,30.42,NNW,346,3.0,4.0,30,0.00,,---,0.00,VWS V14.01,2013-01-04 21:33:00,
2013-01-04 14:35:00,33.7,5.6,30.41,NNW,347,0.0,4.0,30,0.00,,---,0.00,VWS V14.01,2013-01-04 21:35:00,
2013-01-04 14:38:00,33.5,5.4,30.41,NW,319,0.0,2.0,30,0.00,,---,0.00,VWS V14.01,2013-01-04 21:38:00,
2013-01-04 14:40:00,33.7,5.6,30.41,NW,320,0.0,2.0,30,0.00,,---,0.00,VWS V14.01,2013-01-04 21:40:00,
2013-01-04 14:43:00,34.3,5.4,30.41,South,173,1.0,3.0,29,0.00,,---,0.00,VWS V14.01,2013-01-04 21:43:00,
2013-01-04 14:45:00,34.4,5.4,30.41,WSW,247,3.0,4.0,29,0.00,,---,0.00,VWS V14.01,2013-01-04 21:45:00,
2013-01-04 14:48:00,34.2,5.3,30.41,SSW,209,3.0,5.0,29,0.00,,---,0.00,VWS V14.01,2013-01-04 21:48:00,
2013-01-04 14:50:00,34.2,6.0,30.41,SW,225,3.0,5.0,30,0.00,,---,0.00,VWS V14.01,2013-01-04 21:50:00,
2013-01-04 14:53:00,34.0,5.1,30.41,WSW,244,2.0,5.0,29,0.00,,---,0.00,VWS V14.01,2013-01-04 21:53:00,
2013-01-04 14:55:00,33.9,5.0,30.41,WSW,250,1.0,5.0,29,0.00,,---,0.00,VWS V14.01,2013-01-04 21:55:00,
2013-01-04 14:58:00,34.1,5.9,30.41,South,190,4.0,4.0,30,0.00,,---,0.00,VWS V14.01,2013-01-04 21:58:00,
2013-01-04 15:00:00,34.2,5.3,30.41,SSW,203,2.0,4.0,29,0.00,,---,0.00,VWS V14.01,2013-01-04 22:00:00,
2013-01-04 15:03:00,34.1,5.2,30.41,SSE,159,0.0,3.0,29,0.00,,---,0.00,VWS V14.01,2013-01-04 22:03:00,
2013-01-04 15:05:00,33.7,4.8,30.41,SSE,159,0.0,3.0,29,0.00,,---,0.00,VWS V14.01,2013-01-04 22:05:00,
2013-01-04 15:08:00,34.0,5.8,30.41,South,171,2.0,3.0,30,0.00,,---,0.00,VWS V14.01,2013-01-04 22:08:00,
2013-01-04 15:10:00,33.9,5.0,30.41,SW,234,3.0,4.0,29,0.00,,---,0.00,VWS V14.01,2013-01-04 22:10:00,
2013-01-04 15:13:00,34.4,5.4,30.41,SE,132,1.0,3.0,29,0.00,,---,0.00,VWS V14.01,2013-01-04 22:13:00,
2013-01-04 15:15:00,34.7,5.7,30.41,SE,132,2.0,3.0,29,0.00,,---,0.00,VWS V14.01,2013-01-04 22:15:00,
2013-01-04 15:18:00,34.5,5.5,30.41,South,175,3.0,5.0,29,0.00,,---,0.00,VWS V14.01,2013-01-04 22:18:00,
2013-01-04 15:20:00,34.2,5.3,30.41,SSW,192,1.0,5.0,29,0.00,,---,0.00,VWS V14.01,2013-01-04 22:20:00,
2013-01-04 15:23:00,34.4,5.4,30.41,SSW,205,3.0,6.0,29,0.00,,---,0.00,VWS V14.01,2013-01-04 22:23:00,
2013-01-04 15:25:00,34.3,5.4,30.41,SW,219,2.0,6.0,29,0.00,,---,0.00,VWS V14.01,2013-01-04 22:25:00,
2013-01-04 15:28:00,33.7,5.6,30.41,SW,227,1.0,3.0,30,0.00,,---,0.00,VWS V14.01,2013-01-04 22:28:00,
2013-01-04 15:30:00,33.5,5.4,30.41,SW,227,0.0,3.0,30,0.00,,---,0.00,VWS V14.01,2013-01-04 22:30:00,
2013-01-04 15:33:00,34.1,5.9,30.41,WSW,246,3.0,4.0,30,0.00,,---,0.00,VWS V14.01,2013-01-04 22:33:00,
2013-01-04 15:35:00,34.4,6.2,30.41,SSW,193,4.0,4.0,30,0.00,,---,0.00,VWS V14.01,2013-01-04 22:35:00,
2013-01-04 15:38:00,34.4,5.4,30.41,SSW,209,1.0,4.0,29,0.00,,---,0.00,VWS V14.01,2013-01-04 22:38:00,
2013-01-04 15:40:00,34.2,5.3,30.41,SSW,209,0.0,4.0,29,0.00,,---,0.00,VWS V14.01,2013-01-04 22:40:00,
2013-01-04 15:43:00,34.4,6.2,30.41,SE,136,4.0,5.0,30,0.00,,---,0.00,VWS V14.01,2013-01-04 22:43:00,
2013-01-04 15:45:00,34.5,6.3,30.41,SSE,148,1.0,5.0,30,0.00,,---,0.00,VWS V14.01,2013-01-04 22:45:00,
2013-01-04 15:48:00,34.1,5.9,30.41,South,185,3.0,3.0,30,0.00,,---,0.00,VWS V14.01,2013-01-04 22:48:00,
2013-01-04 15:50:00,34.1,5.9,30.41,SE,132,0.0,3.0,30,0.00,,---,0.00,VWS V14.01,2013-01-04 22:50:00,
2013-01-04 15:53:00,34.7,6.4,30.40,SSW,210,2.0,3.0,30,0.00,,---,0.00,VWS V14.01,2013-01-04 22:53:00,
2013-01-04 15:55:00,34.7,5.7,30.40,SW,219,2.0,3.0,29,0.00,,---,0.00,VWS V14.01,2013-01-04 22:55:00,
2013-01-04 15:58:00,34.5,5.5,30.40,SE,130,0.0,2.0,29,0.00,,---,0.00,VWS V14.01,2013-01-04 22:58:00,
2013-01-04 16:03:00,34.6,5.6,30.40,SE,138,3.0,5.0,29,0.00,,---,0.00,VWS V14.01,2013-01-04 23:03:00,
2013-01-04 16:05:00,34.4,5.4,30.40,SE,138,0.0,5.0,29,0.00,,---,0.00,VWS V14.01,2013-01-04 23:05:00,
2013-01-04 16:08:00,34.1,5.9,30.40,SE,130,1.0,4.0,30,0.00,,---,0.00,VWS V14.01,2013-01-04 23:08:00,
2013-01-04 16:10:00,34.1,5.9,30.40,SSE,161,3.0,4.0,30,0.00,,---,0.00,VWS V14.01,2013-01-04 23:10:00,
2013-01-04 16:13:00,34.1,5.9,30.40,SSE,167,2.0,5.0,30,0.00,,---,0.00,VWS V14.01,2013-01-04 23:13:00,
2013-01-04 16:15:00,34.1,5.9,30.40,SE,142,2.0,5.0,30,0.00,,---,0.00,VWS V14.01,2013-01-04 23:15:00,
2013-01-04 16:18:00,34.2,6.0,30.40,SE,144,1.0,4.0,30,0.00,,---,0.00,VWS V14.01,2013-01-04 23:18:00,
2013-01-04 16:20:00,34.0,5.1,30.40,SE,134,1.0,4.0,29,0.00,,---,0.00,VWS V14.01,2013-01-04 23:20:00,
2013-01-04 16:23:00,33.9,5.8,30.40,SE,126,1.0,4.0,30,0.00,,---,0.00,VWS V14.01,2013-01-04 23:23:00,
2013-01-04 16:28:00,33.8,5.7,30.40,South,188,2.0,2.0,30,0.00,,---,0.00,VWS V14.01,2013-01-04 23:28:00,
2013-01-04 16:30:00,33.7,5.6,30.40,South,174,2.0,3.0,30,0.00,,---,0.00,VWS V14.01,2013-01-04 23:30:00,
2013-01-04 16:33:00,33.7,5.6,30.40,SE,136,0.0,3.0,30,0.00,,---,0.00,VWS V14.01,2013-01-04 23:33:00,
2013-01-04 16:35:00,33.7,5.6,30.40,SE,136,1.0,3.0,30,0.00,,---,0.00,VWS V14.01,2013-01-04 23:35:00,
2013-01-04 16:38:00,33.6,5.5,30.40,SE,134,0.0,2.0,30,0.00,,---,0.00,VWS V14.01,2013-01-04 23:38:00,
2013-01-04 16:40:00,33.7,5.6,30.40,SE,134,2.0,2.0,30,0.00,,---,0.00,VWS V14.01,2013-01-04 23:40:00,
2013-01-04 16:43:00,33.5,5.4,30.40,SE,144,0.0,2.0,30,0.00,,---,0.00,VWS V14.01,2013-01-04 23:43:00,
2013-01-04 16:45:00,33.5,5.4,30.40,SE,138,0.0,2.0,30,0.00,,---,0.00,VWS V14.01,2013-01-04 23:45:00,
2013-01-04 16:48:00,33.4,6.0,30.40,ESE,109,0.0,2.0,31,0.00,,---,0.00,VWS V14.01,2013-01-04 23:48:00,
2013-01-04 16:50:00,33.3,5.2,30.40,ESE,106,2.0,2.0,30,0.00,,---,0.00,VWS V14.01,2013-01-04 23:50:00,
2013-01-04 16:53:00,33.2,5.8,30.40,ESE,106,0.0,2.0,31,0.00,,---,0.00,VWS V14.01,2013-01-04 23:53:00,
2013-01-04 16:55:00,33.1,5.8,30.40,ESE,105,0.0,2.0,31,0.00,,---,0.00,VWS V14.01,2013-01-04 23:55:00,
2013-01-04 16:58:00,33.0,5.7,30.40,ESE,105,1.0,2.0,31,0.00,,---,0.00,VWS V14.01,2013-01-04 23:58:00,
2013-01-04 17:00:00,32.9,5.6,30.40,ESE,105,0.0,2.0,31,0.00,,---,0.00,VWS V14.01,2013-01-05 00:00:00,
2013-01-04 17:03:00,32.8,5.5,30.40,ESE,105,0.0,1.0,31,0.00,,---,0.00,VWS V14.01,2013-01-05 00:03:00,
2013-01-04 17:05:00,32.7,5.4,30.40,ESE,105,0.0,1.0,31,0.00,,---,0.00,VWS V14.01,2013-01-05 00:05:00,
2013-01-04 17:08:00,32.5,5.9,30.40,ESE,105,0.0,0.0,32,0.00,,---,0.00,VWS V14.01,2013-01-05 00:08:00,
2013-01-04 17:10:00,32.4,5.8,30.40,ESE,105,0.0,0.0,32,0.00,,---,0.00,VWS V14.01,2013-01-05 00:10:00,
2013-01-04 17:13:00,32.2,5.7,30.40,ESE,105,0.0,0.0,32,0.00,,---,0.00,VWS V14.01,2013-01-05 00:13:00,
2013-01-04 17:15:00,32.2,5.7,30.40,ESE,105,0.0,0.0,32,0.00,,---,0.00,VWS V14.01,2013-01-05 00:15:00,
2013-01-04 17:18:00,31.9,6.1,30.40,ESE,105,0.0,0.0,33,0.00,,---,0.00,VWS V14.01,2013-01-05 00:18:00,
2013-01-04 17:20:00,31.8,6.0,30.40,ESE,105,0.0,0.0,33,0.00,,---,0.00,VWS V14.01,2013-01-05 00:20:00,
2013-01-04 17:23:00,31.0,5.9,30.40,ESE,105,0.0,0.0,34,0.00,,---,0.00,VWS V14.01,2013-01-05 00:23:00,
2013-01-04 17:25:00,30.8,5.8,30.40,ESE,105,0.0,0.0,34,0.00,,---,0.00,VWS V14.01,2013-01-05 00:25:00,
2013-01-04 17:28:00,30.5,6.1,30.40,ESE,105,0.0,0.0,35,0.00,,---,0.00,VWS V14.01,2013-01-05 00:28:00,
2013-01-04 17:30:00,30.3,5.9,30.40,ESE,105,0.0,0.0,35,0.00,,---,0.00,VWS V14.01,2013-01-05 00:30:00,
2013-01-04 17:33:00,30.1,5.8,30.41,ESE,105,0.0,0.0,35,0.00,,---,0.00,VWS V14.01,2013-01-05 00:33:00,
2013-01-04 17:35:00,30.0,6.3,30.41,ESE,105,0.0,0.0,36,0.00,,---,0.00,VWS V14.01,2013-01-05 00:35:00,
2013-01-04 17:38:00,29.7,6.0,30.41,ESE,105,0.0,0.0,36,0.00,,---,0.00,VWS V14.01,2013-01-05 00:38:00,
2013-01-04 17:40:00,29.6,6.5,30.41,ESE,105,0.0,0.0,37,0.00,,---,0.00,VWS V14.01,2013-01-05 00:40:00,
2013-01-04 17:43:00,29.4,6.4,30.41,ESE,105,0.0,0.0,37,0.00,,---,0.00,VWS V14.01,2013-01-05 00:43:00,
2013-01-04 17:45:00,29.3,6.9,30.41,ESE,105,0.0,0.0,38,0.00,,---,0.00,VWS V14.01,2013-01-05 00:45:00,
2013-01-04 17:48:00,29.3,6.9,30.41,ESE,105,0.0,0.0,38,0.00,,---,0.00,VWS V14.01,2013-01-05 00:48:00,
2013-01-04 17:50:00,29.3,6.9,30.41,ESE,105,0.0,0.0,38,0.00,,---,0.00,VWS V14.01,2013-01-05 00:50:00,
2013-01-04 17:53:00,29.3,6.9,30.41,ESE,105,0.0,0.0,38,0.00,,---,0.00,VWS V14.01,2013-01-05 00:53:00,
2013-01-04 17:55:00,29.4,6.9,30.41,ESE,105,0.0,0.0,38,0.00,,---,0.00,VWS V14.01,2013-01-05 00:55:00,
2013-01-04 17:58:00,29.3,6.9,30.42,ESE,105,0.0,0.0,38,0.00,,---,0.00,VWS V14.01,2013-01-05 00:58:00,
2013-01-04 18:00:00,29.3,6.9,30.41,ESE,105,0.0,0.0,38,0.00,,---,0.00,VWS V14.01,2013-01-05 01:00:00,
2013-01-04 18:03:00,29.1,6.7,30.41,ESE,105,0.0,0.0,38,0.00,,---,0.00,VWS V14.01,2013-01-05 01:03:00,
2013-01-04 18:05:00,29.1,6.7,30.42,ESE,105,0.0,0.0,38,0.00,,---,0.00,VWS V14.01,2013-01-05 01:05:00,
2013-01-04 18:08:00,29.5,6.4,30.41,ESE,105,0.0,0.0,37,0.00,,---,0.00,VWS V14.01,2013-01-05 01:08:00,
2013-01-04 18:10:00,29.6,6.5,30.41,ESE,105,0.0,0.0,37,0.00,,---,0.00,VWS V14.01,2013-01-05 01:10:00,
2013-01-04 18:13:00,29.0,6.6,30.42,ESE,105,0.0,0.0,38,0.00,,---,0.00,VWS V14.01,2013-01-05 01:13:00,
2013-01-04 18:15:00,28.8,6.4,30.42,ESE,105,0.0,0.0,38,0.00,,---,0.00,VWS V14.01,2013-01-05 01:15:00,
2013-01-04 18:18:00,28.7,6.3,30.42,ESE,105,0.0,0.0,38,0.00,,---,0.00,VWS V14.01,2013-01-05 01:18:00,
2013-01-04 18:20:00,28.6,6.8,30.42,ESE,105,0.0,0.0,39,0.00,,---,0.00,VWS V14.01,2013-01-05 01:20:00,
2013-01-04 18:23:00,28.1,6.3,30.42,ESE,105,0.0,0.0,39,0.00,,---,0.00,VWS V14.01,2013-01-05 01:23:00,
2013-01-04 18:25:00,27.9,6.2,30.42,ESE,105,0.0,0.0,39,0.00,,---,0.00,VWS V14.01,2013-01-05 01:25:00,
2013-01-04 18:28:00,27.5,6.9,30.42,ESE,105,0.0,0.0,41,0.00,,---,0.00,VWS V14.01,2013-01-05 01:28:00,
2013-01-04 18:30:00,27.5,6.9,30.42,ESE,105,0.0,0.0,41,0.00,,---,0.00,VWS V14.01,2013-01-05 01:30:00,
2013-01-04 18:33:00,27.3,6.7,30.42,ESE,105,0.0,0.0,41,0.00,,---,0.00,VWS V14.01,2013-01-05 01:33:00,
2013-01-04 18:35:00,27.3,6.7,30.42,ESE,105,0.0,0.0,41,0.00,,---,0.00,VWS V14.01,2013-01-05 01:35:00,
2013-01-04 18:38:00,27.4,6.8,30.42,ESE,105,0.0,0.0,41,0.00,,---,0.00,VWS V14.01,2013-01-05 01:38:00,
2013-01-04 18:40:00,27.4,6.8,30.42,ESE,105,0.0,0.0,41,0.00,,---,0.00,VWS V14.01,2013-01-05 01:40:00,
2013-01-04 18:43:00,27.3,6.7,30.42,ESE,105,0.0,0.0,41,0.00,,---,0.00,VWS V14.01,2013-01-05 01:43:00,
2013-01-04 18:45:00,27.2,7.2,30.42,ESE,105,0.0,0.0,42,0.00,,---,0.00,VWS V14.01,2013-01-05 01:45:00,
2013-01-04 18:48:00,27.1,7.1,30.43,ESE,105,0.0,0.0,42,0.00,,---,0.00,VWS V14.01,2013-01-05 01:48:00,
2013-01-04 18:50:00,27.0,7.5,30.43,ESE,105,0.0,0.0,43,0.00,,---,0.00,VWS V14.01,2013-01-05 01:50:00,
2013-01-04 18:53:00,26.8,7.3,30.43,ESE,105,0.0,0.0,43,0.00,,---,0.00,VWS V14.01,2013-01-05 01:53:00,
2013-01-04 18:55:00,26.8,7.3,30.43,ESE,105,0.0,0.0,43,0.00,,---,0.00,VWS V14.01,2013-01-05 01:55:00,
2013-01-04 18:58:00,26.9,7.4,30.43,ESE,105,0.0,1.0,43,0.00,,---,0.00,VWS V14.01,2013-01-05 01:58:00,
2013-01-04 19:00:00,26.9,7.4,30.43,ESE,105,0.0,1.0,43,0.00,,---,0.00,VWS V14.01,2013-01-05 02:00:00,
2013-01-04 19:03:00,26.9,7.4,30.43,ESE,105,0.0,0.0,43,0.00,,---,0.00,VWS V14.01,2013-01-05 02:03:00,
2013-01-04 19:05:00,26.9,7.4,30.43,ESE,105,0.0,0.0,43,0.00,,---,0.00,VWS V14.01,2013-01-05 02:05:00,
2013-01-04 19:08:00,26.9,6.9,30.44,ESE,105,0.0,0.0,42,0.00,,---,0.00,VWS V14.01,2013-01-05 02:08:00,
2013-01-04 19:10:00,26.9,6.9,30.44,ESE,105,0.0,0.0,42,0.00,,---,0.00,VWS V14.01,2013-01-05 02:10:00,
2013-01-04 19:13:00,26.9,6.9,30.44,ESE,105,0.0,0.0,42,0.00,,---,0.00,VWS V14.01,2013-01-05 02:13:00,
2013-01-04 19:15:00,26.9,6.9,30.44,ESE,105,0.0,0.0,42,0.00,,---,0.00,VWS V14.01,2013-01-05 02:15:00,
2013-01-04 19:18:00,27.0,6.4,30.44,ESE,105,0.0,0.0,41,0.00,,---,0.00,VWS V14.01,2013-01-05 02:18:00,
2013-01-04 19:20:00,26.9,6.4,30.44,ESE,105,0.0,0.0,41,0.00,,---,0.00,VWS V14.01,2013-01-05 02:20:00,
2013-01-04 19:23:00,26.9,6.9,30.44,ESE,105,0.0,0.0,42,0.00,,---,0.00,VWS V14.01,2013-01-05 02:23:00,
2013-01-04 19:25:00,26.9,6.9,30.44,ESE,105,0.0,0.0,42,0.00,,---,0.00,VWS V14.01,2013-01-05 02:25:00,
2013-01-04 19:28:00,26.7,6.7,30.44,ESE,105,0.0,0.0,42,0.00,,---,0.00,VWS V14.01,2013-01-05 02:28:00,
2013-01-04 19:30:00,26.8,6.8,30.45,ESE,105,0.0,0.0,42,0.00,,---,0.00,VWS V14.01,2013-01-05 02:30:00,
2013-01-04 19:33:00,26.5,6.5,30.45,ESE,105,0.0,0.0,42,0.00,,---,0.00,VWS V14.01,2013-01-05 02:33:00,
2013-01-04 19:35:00,26.4,6.4,30.45,ESE,105,0.0,0.0,42,0.00,,---,0.00,VWS V14.01,2013-01-05 02:35:00,
2013-01-04 19:38:00,26.3,6.9,30.45,ESE,105,0.0,0.0,43,0.00,,---,0.00,VWS V14.01,2013-01-05 02:38:00,
2013-01-04 19:40:00,26.4,6.9,30.45,ESE,105,0.0,0.0,43,0.00,,---,0.00,VWS V14.01,2013-01-05 02:40:00,
2013-01-04 19:42:00,25.8,6.4,30.45,ESE,105,0.0,0.0,43,0.00,,---,0.00,VWS V14.01,2013-01-05 02:42:00,
2013-01-04 19:45:00,25.7,6.8,30.45,ESE,105,0.0,0.0,44,0.00,,---,0.00,VWS V14.01,2013-01-05 02:45:00,
2013-01-04 19:47:00,25.4,6.5,30.45,ESE,105,0.0,0.0,44,0.00,,---,0.00,VWS V14.01,2013-01-05 02:47:00,
2013-01-04 19:50:00,25.3,6.4,30.45,ESE,105,0.0,0.0,44,0.00,,---,0.00,VWS V14.01,2013-01-05 02:50:00,
2013-01-04 19:52:00,25.2,6.8,30.45,ESE,105,0.0,0.0,45,0.00,,---,0.00,VWS V14.01,2013-01-05 02:52:00,
2013-01-04 19:55:00,25.1,6.8,30.45,ESE,105,0.0,0.0,45,0.00,,---,0.00,VWS V14.01,2013-01-05 02:55:00,
2013-01-04 19:57:00,25.0,7.2,30.45,ESE,105,0.0,0.0,46,0.00,,---,0.00,VWS V14.01,2013-01-05 02:57:00,
2013-01-04 20:00:00,25.0,7.2,30.45,ESE,105,0.0,0.0,46,0.00,,---,0.00,VWS V14.01,2013-01-05 03:00:00,
2013-01-04 20:02:00,24.8,7.0,30.45,ESE,105,0.0,0.0,46,0.00,,---,0.00,VWS V14.01,2013-01-05 03:02:00,
2013-01-04 20:05:00,24.8,7.0,30.45,ESE,105,0.0,0.0,46,0.00,,---,0.00,VWS V14.01,2013-01-05 03:05:00,
2013-01-04 20:07:00,24.9,7.1,30.46,ESE,105,0.0,0.0,46,0.00,,---,0.00,VWS V14.01,2013-01-05 03:07:00,
2013-01-04 20:10:00,24.9,7.1,30.46,ESE,105,0.0,0.0,46,0.00,,---,0.00,VWS V14.01,2013-01-05 03:10:00,
2013-01-04 20:12:00,24.6,6.8,30.45,ESE,105,0.0,0.0,46,0.00,,---,0.00,VWS V14.01,2013-01-05 03:12:00,
2013-01-04 20:15:00,24.6,6.8,30.45,ESE,105,0.0,0.0,46,0.00,,---,0.00,VWS V14.01,2013-01-05 03:15:00,
2013-01-04 20:17:00,24.8,6.5,30.46,NE,56,0.0,1.0,45,0.00,,---,0.00,VWS V14.01,2013-01-05 03:17:00,
2013-01-04 20:20:00,24.7,6.4,30.46,NE,56,0.0,1.0,45,0.00,,---,0.00,VWS V14.01,2013-01-05 03:20:00,
2013-01-04 20:22:00,24.7,6.4,30.46,NE,56,0.0,0.0,45,0.00,,---,0.00,VWS V14.01,2013-01-05 03:22:00,
2013-01-04 20:25:00,24.6,6.3,30.46,NE,56,0.0,0.0,45,0.00,,---,0.00,VWS V14.01,2013-01-05 03:25:00,
2013-01-04 20:27:00,24.7,6.4,30.46,NE,56,0.0,0.0,45,0.00,,---,0.00,VWS V14.01,2013-01-05 03:27:00,
2013-01-04 20:30:00,24.7,5.9,30.46,NE,56,0.0,0.0,44,0.00,,---,0.00,VWS V14.01,2013-01-05 03:30:00,
2013-01-04 20:32:00,24.8,6.0,30.46,NE,56,0.0,0.0,44,0.00,,---,0.00,VWS V14.01,2013-01-05 03:32:00,
2013-01-04 20:35:00,24.9,6.1,30.46,NE,56,0.0,0.0,44,0.00,,---,0.00,VWS V14.01,2013-01-05 03:35:00,
2013-01-04 20:37:00,24.9,5.6,30.46,NE,56,0.0,0.0,43,0.00,,---,0.00,VWS V14.01,2013-01-05 03:37:00,
2013-01-04 20:40:00,24.8,6.0,30.46,NE,56,0.0,0.0,44,0.00,,---,0.00,VWS V14.01,2013-01-05 03:40:00,
2013-01-04 20:42:00,24.2,5.9,30.46,NE,56,0.0,0.0,45,0.00,,---,0.00,VWS V14.01,2013-01-05 03:42:00,
2013-01-04 20:45:00,24.0,5.8,30.46,NE,56,0.0,0.0,45,0.00,,---,0.00,VWS V14.01,2013-01-05 03:45:00,
2013-01-04 20:47:00,24.0,6.7,30.46,NE,56,0.0,0.0,47,0.00,,---,0.00,VWS V14.01,2013-01-05 03:47:00,
2013-01-04 20:50:00,24.0,6.2,30.46,NE,56,0.0,0.0,46,0.00,,---,0.00,VWS V14.01,2013-01-05 03:50:00,
2013-01-04 20:52:00,24.2,6.4,30.46,NE,56,0.0,0.0,46,0.00,,---,0.00,VWS V14.01,2013-01-05 03:52:00,
2013-01-04 20:55:00,24.2,6.4,30.46,NE,56,0.0,0.0,46,0.00,,---,0.00,VWS V14.01,2013-01-05 03:55:00,
2013-01-04 20:57:00,24.2,5.9,30.46,NE,56,0.0,0.0,45,0.00,,---,0.00,VWS V14.01,2013-01-05 03:57:00,
2013-01-04 21:00:00,24.1,5.8,30.46,NE,56,0.0,0.0,45,0.00,,---,0.00,VWS V14.01,2013-01-05 04:00:00,
2013-01-04 21:02:00,24.2,5.9,30.46,NE,56,0.0,0.0,45,0.00,,---,0.00,VWS V14.01,2013-01-05 04:02:00,
2013-01-04 21:05:00,24.2,5.9,30.46,NE,56,0.0,0.0,45,0.00,,---,0.00,VWS V14.01,2013-01-05 04:05:00,
2013-01-04 21:07:00,24.2,5.9,30.46,NE,56,0.0,0.0,45,0.00,,---,0.00,VWS V14.01,2013-01-05 04:07:00,
2013-01-04 21:10:00,24.1,5.8,30.46,NE,56,0.0,0.0,45,0.00,,---,0.00,VWS V14.01,2013-01-05 04:10:00,
2013-01-04 21:12:00,23.4,5.7,30.46,NE,56,0.0,0.0,46,0.00,,---,0.00,VWS V14.01,2013-01-05 04:12:00,
2013-01-04 21:15:00,23.4,6.2,30.46,NE,56,0.0,0.0,47,0.00,,---,0.00,VWS V14.01,2013-01-05 04:15:00,
2013-01-04 21:17:00,23.3,6.1,30.46,NE,56,0.0,0.0,47,0.00,,---,0.00,VWS V14.01,2013-01-05 04:17:00,
2013-01-04 21:20:00,23.3,6.1,30.46,NE,56,0.0,0.0,47,0.00,,---,0.00,VWS V14.01,2013-01-05 04:20:00,
2013-01-04 21:22:00,23.1,5.9,30.46,NE,56,0.0,0.0,47,0.00,,---,0.00,VWS V14.01,2013-01-05 04:22:00,
2013-01-04 21:25:00,23.1,5.9,30.46,NE,56,0.0,0.0,47,0.00,,---,0.00,VWS V14.01,2013-01-05 04:25:00,
2013-01-04 21:27:00,22.9,6.2,30.46,NE,56,0.0,0.0,48,0.00,,---,0.00,VWS V14.01,2013-01-05 04:27:00,
2013-01-04 21:30:00,22.8,6.1,30.46,NE,56,0.0,0.0,48,0.00,,---,0.00,VWS V14.01,2013-01-05 04:30:00,
2013-01-04 21:32:00,22.8,6.1,30.47,NE,56,0.0,0.0,48,0.00,,---,0.00,VWS V14.01,2013-01-05 04:32:00,
2013-01-04 21:35:00,22.8,6.1,30.47,NE,56,0.0,0.0,48,0.00,,---,0.00,VWS V14.01,2013-01-05 04:35:00,
2013-01-04 21:37:00,22.3,6.1,30.47,NE,56,0.0,0.0,49,0.00,,---,0.00,VWS V14.01,2013-01-05 04:37:00,
2013-01-04 21:40:00,22.1,5.9,30.47,NE,56,0.0,0.0,49,0.00,,---,0.00,VWS V14.01,2013-01-05 04:40:00,
2013-01-04 21:42:00,21.9,6.1,30.47,NE,56,0.0,0.0,50,0.00,,---,0.00,VWS V14.01,2013-01-05 04:42:00,
2013-01-04 21:45:00,21.9,6.6,30.47,NE,56,0.0,0.0,51,0.00,,---,0.00,VWS V14.01,2013-01-05 04:45:00,
2013-01-04 21:47:00,22.2,6.4,30.47,NE,56,0.0,0.0,50,0.00,,---,0.00,VWS V14.01,2013-01-05 04:47:00,
2013-01-04 21:50:00,22.2,6.4,30.47,NE,56,0.0,0.0,50,0.00,,---,0.00,VWS V14.01,2013-01-05 04:50:00,
2013-01-04 21:52:00,22.3,6.5,30.47,NE,56,0.0,0.0,50,0.00,,---,0.00,VWS V14.01,2013-01-05 04:52:00,
2013-01-04 21:55:00,22.3,6.5,30.47,NE,56,0.0,0.0,50,0.00,,---,0.00,VWS V14.01,2013-01-05 04:55:00,
2013-01-04 21:57:00,22.3,6.5,30.47,NE,56,0.0,0.0,50,0.00,,---,0.00,VWS V14.01,2013-01-05 04:57:00,
2013-01-04 22:00:00,22.1,6.3,30.48,NE,56,0.0,0.0,50,0.00,,---,0.00,VWS V14.01,2013-01-05 05:00:00,
2013-01-04 22:01:00,22.0,6.2,30.47,NE,56,0.0,0.0,50,0.00,,---,0.00,VWS V14.01,2013-01-05 05:01:00,
2013-01-04 22:05:00,21.9,6.6,30.48,NE,56,0.0,0.0,51,0.00,,---,0.00,VWS V14.01,2013-01-05 05:05:00,
2013-01-04 22:06:00,21.8,6.5,30.48,NE,56,0.0,0.0,51,0.00,,---,0.00,VWS V14.01,2013-01-05 05:06:00,
2013-01-04 22:10:00,21.4,6.1,30.48,NE,56,0.0,0.0,51,0.00,,---,0.00,VWS V14.01,2013-01-05 05:10:00,
2013-01-04 22:11:00,21.3,6.4,30.48,NE,56,0.0,0.0,52,0.00,,---,0.00,VWS V14.01,2013-01-05 05:11:00,
2013-01-04 22:15:00,21.2,6.8,30.48,NE,56,0.0,0.0,53,0.00,,---,0.00,VWS V14.01,2013-01-05 05:15:00,
2013-01-04 22:16:00,21.3,6.8,30.48,NE,56,0.0,0.0,53,0.00,,---,0.00,VWS V14.01,2013-01-05 05:16:00,
2013-01-04 22:20:00,21.5,7.0,30.48,NE,56,0.0,0.0,53,0.00,,---,0.00,VWS V14.01,2013-01-05 05:20:00,
2013-01-04 22:21:00,21.5,6.6,30.48,NE,56,0.0,0.0,52,0.00,,---,0.00,VWS V14.01,2013-01-05 05:21:00,
2013-01-04 22:25:00,21.6,6.7,30.48,NE,56,0.0,0.0,52,0.00,,---,0.00,VWS V14.01,2013-01-05 05:25:00,
2013-01-04 22:26:00,21.7,6.4,30.48,NE,56,0.0,0.0,51,0.00,,---,0.00,VWS V14.01,2013-01-05 05:26:00,
2013-01-04 22:30:00,21.9,6.1,30.48,NE,56,0.0,0.0,50,0.00,,---,0.00,VWS V14.01,2013-01-05 05:30:00,
2013-01-04 22:31:00,21.8,6.0,30.48,NE,56,0.0,0.0,50,0.00,,---,0.00,VWS V14.01,2013-01-05 05:31:00,
2013-01-04 22:35:00,21.9,5.7,30.48,NE,56,0.0,1.0,49,0.00,,---,0.00,VWS V14.01,2013-01-05 05:35:00,
2013-01-04 22:36:00,22.1,5.9,30.48,NE,40,0.0,1.0,49,0.00,,---,0.00,VWS V14.01,2013-01-05 05:36:00,
2013-01-04 22:40:00,22.4,5.7,30.48,NE,40,0.0,1.0,48,0.00,,---,0.00,VWS V14.01,2013-01-05 05:40:00,
2013-01-04 22:41:00,22.4,5.7,30.48,NE,40,0.0,0.0,48,0.00,,---,0.00,VWS V14.01,2013-01-05 05:41:00,
2013-01-04 22:45:00,22.3,5.6,30.48,NE,40,0.0,1.0,48,0.00,,---,0.00,VWS V14.01,2013-01-05 05:45:00,
2013-01-04 22:46:00,22.3,5.6,30.48,NE,40,0.0,0.0,48,0.00,,---,0.00,VWS V14.01,2013-01-05 05:46:00,
2013-01-04 22:50:00,22.5,5.8,30.48,NE,40,0.0,0.0,48,0.00,,---,0.00,VWS V14.01,2013-01-05 05:50:00,
2013-01-04 22:51:00,22.4,5.7,30.48,NE,40,0.0,0.0,48,0.00,,---,0.00,VWS V14.01,2013-01-05 05:51:00,
2013-01-04 22:55:00,22.4,5.7,30.48,NE,40,0.0,0.0,48,0.00,,---,0.00,VWS V14.01,2013-01-05 05:55:00,
2013-01-04 22:56:00,22.4,5.7,30.48,NE,40,0.0,0.0,48,0.00,,---,0.00,VWS V14.01,2013-01-05 05:56:00,
2013-01-04 23:00:00,21.9,5.2,30.48,NE,40,0.0,0.0,48,0.00,,---,0.00,VWS V14.01,2013-01-05 06:00:00,
2013-01-04 23:01:00,21.8,5.6,30.48,NE,40,0.0,0.0,49,0.00,,---,0.00,VWS V14.01,2013-01-05 06:01:00,
2013-01-04 23:05:00,21.8,5.6,30.48,NE,40,0.0,0.0,49,0.00,,---,0.00,VWS V14.01,2013-01-05 06:05:00,
2013-01-04 23:06:00,21.5,5.3,30.48,NE,40,0.0,0.0,49,0.00,,---,0.00,VWS V14.01,2013-01-05 06:06:00,
2013-01-04 23:10:00,21.3,5.6,30.48,NE,40,0.0,0.0,50,0.00,,---,0.00,VWS V14.01,2013-01-05 06:10:00,
2013-01-04 23:11:00,21.2,5.5,30.48,NE,40,0.0,0.0,50,0.00,,---,0.00,VWS V14.01,2013-01-05 06:11:00,
2013-01-04 23:15:00,21.5,5.8,30.48,NE,40,0.0,0.0,50,0.00,,---,0.00,VWS V14.01,2013-01-05 06:15:00,
2013-01-04 23:16:00,21.8,6.0,30.48,NE,40,0.0,0.0,50,0.00,,---,0.00,VWS V14.01,2013-01-05 06:16:00,
2013-01-04 23:20:00,22.2,6.0,30.48,NE,40,0.0,0.0,49,0.00,,---,0.00,VWS V14.01,2013-01-05 06:20:00,
2013-01-04 23:21:00,22.2,6.0,30.48,NE,40,0.0,1.0,49,0.00,,---,0.00,VWS V14.01,2013-01-05 06:21:00,
2013-01-04 23:25:00,22.4,5.7,30.48,NNE,19,0.0,1.0,48,0.00,,---,0.00,VWS V14.01,2013-01-05 06:25:00,
2013-01-04 23:26:00,22.5,5.8,30.48,NNE,15,0.0,2.0,48,0.00,,---,0.00,VWS V14.01,2013-01-05 06:26:00,
2013-01-04 23:30:00,22.8,6.1,30.48,NNE,15,0.0,2.0,48,0.00,,---,0.00,VWS V14.01,2013-01-05 06:30:00,
2013-01-04 23:31:00,22.9,5.7,30.48,NNE,15,0.0,1.0,47,0.00,,---,0.00,VWS V14.01,2013-01-05 06:31:00,
2013-01-04 23:35:00,23.0,5.8,30.48,NNE,15,1.0,2.0,47,0.00,,---,0.00,VWS V14.01,2013-01-05 06:35:00,
2013-01-04 23:36:00,23.1,5.4,30.48,North,355,1.0,2.0,46,0.00,,---,0.00,VWS V14.01,2013-01-05 06:36:00,
2013-01-04 23:40:00,23.3,5.6,30.48,North,10,2.0,3.0,46,0.00,,---,0.00,VWS V14.01,2013-01-05 06:40:00,
2013-01-04 23:41:00,23.4,5.2,30.48,NW,323,1.0,2.0,45,0.00,,---,0.00,VWS V14.01,2013-01-05 06:41:00,
2013-01-04 23:45:00,23.6,5.4,30.48,NNW,342,1.0,3.0,45,0.00,,---,0.00,VWS V14.01,2013-01-05 06:45:00,
2013-01-04 23:46:00,23.6,5.4,30.48,NNW,342,2.0,2.0,45,0.00,,---,0.00,VWS V14.01,2013-01-05 06:46:00,
2013-01-04 23:50:00,23.7,5.0,30.48,North,355,0.0,3.0,44,0.00,,---,0.00,VWS V14.01,2013-01-05 06:50:00,
2013-01-04 23:51:00,23.7,5.0,30.48,North,355,2.0,2.0,44,0.00,,---,0.00,VWS V14.01,2013-01-05 06:51:00,
2013-01-04 23:55:00,23.7,5.0,30.48,North,355,2.0,5.0,44,0.00,,---,0.00,VWS V14.01,2013-01-05 06:55:00,
2013-01-04 23:56:00,23.9,5.2,30.48,NNE,13,3.0,3.0,44,0.00,,---,0.00,VWS V14.01,2013-01-05 06:56:00,